Location: Table Rock
(44.3339°N, 118.3154°W)
Time: 11:06:18
(UTC-08:00)

Daily predictions for brighter satellites

Satellite Brightness Start Highest point End
(mag) Time Altitude Azimuth Time Altitude Azimuth Time Altitude Azimuth
Cosmos 2195 Rocket 4.5 16:38:58 10° N 16:45:10 76° E 16:51:16 10° SSE
Cosmos 2150 Rocket 4.4 16:40:49 10° S 16:46:04 50° ESE 16:51:19 10° NNE
ATLAS 2AS CENTAUR R/B 3.4 16:39:04 10° S 16:46:29 51° ESE 16:54:16 10° NE
Cosmos 2026 Rocket 4.1 16:42:09 10° N 16:48:33 71° E 16:54:50 10° SSE
NOSS 2-3 (E) 3.9 16:45:02 10° SW 16:49:42 90° NNW 16:55:11 10° NE
ATLAS 3B R/B 2.9 16:43:38 10° NNW 16:50:05 46° NE 16:56:19 10° ESE
Cosmos 1943 Rocket 3.8 16:47:49 10° WSW 16:52:45 31° NW 16:57:47 10° N
Cosmos 2297 Rocket 2.9 16:48:42 10° N 16:53:41 31° NE 16:58:38 10° ESE
Cosmos 1812 3.6 16:50:41 10° SSW 16:54:28 52° W 16:58:16 10° N
Cosmos 1666 3.4 16:52:03 10° NNE 16:55:27 31° ENE 16:58:47 10° SE
AQUARIUS 4.3 16:55:20 10° SSE 16:59:41 52° ENE 17:04:04 10° N
MSX 4.3 16:54:20 10° S 17:00:05 67° WSW 17:05:51 10° NNW
CZ-4 R/B 1.8 16:58:04 10° SE 17:01:39 37° ENE 17:05:18 10° N
Cosmos 1455 Rocket 3.5 16:58:32 10° N 17:02:42 39° ENE 17:06:49 10° SE
USA 215 3.5 16:56:32 10° SE 17:03:05 78° SW 17:09:39 10° NW
Cosmos 1544 Rocket 3.8 17:02:32 10° N 17:06:45 46° ENE 17:10:55 10° SSE
SMAP 3.0 17:02:25 10° SSE 17:07:01 64° ENE 17:11:37 10° N
Meteor 1-18 Rocket 4.4 17:03:35 10° SSW 17:09:09 81° W 17:14:51 10° N
Meteor 2-4 Rocket 4.3 17:07:29 10° SSE 17:12:17 33° E 17:17:03 10° NNE
YAOGAN 1 3.0 17:09:06 10° SE 17:13:06 38° ENE 17:17:07 10° N
Cosmos 1428 Rocket 4.5 17:12:56 10° N 17:19:09 88° E 17:25:17 10° S
ALOS 3.2 17:15:40 10° ESE 17:19:31 26° ENE 17:23:24 10° N
USA 116 3.8 17:17:08 11° NNE 17:19:55 35° E 17:22:47 10° SSE
Cosmos 389 Rocket 2.4 17:17:40 10° NNW 17:21:10 85° W 17:24:37 10° S
CSL-04 Debris 4.2 17:17:28 10° SSE 17:22:51 85° WSW 17:28:17 10° NNW
Cosmos 1898 Rocket 4.4 17:18:03 10° SW 17:23:05 49° WNW 17:28:13 10° NNE
IRAS Rocket 4.5 17:17:42 10° S 17:23:10 75° WSW 17:28:41 10° NNW
Ariane Rocket 3.1 17:18:59 10° SSE 17:24:02 85° WSW 17:29:08 10° NNW
USA 161 4.0 17:23:03 10° NNW 17:25:21 22° WNW 17:27:43 10° SW
COSMO-SKYMED 1 3.3 17:22:36 12° NE 17:26:12 31° E 17:30:04 10° SSE
Cosmos 2369 4.3 17:21:54 10° S 17:27:04 37° ESE 17:31:13 15° NE
Cosmos 2278 4.3 17:23:19 10° S 17:28:27 36° ESE 17:32:25 16° NE
Meteor 1-28 Rocket 3.1 17:26:04 10° NNE 17:29:50 77° ESE 17:33:36 10° S
CENTAUR R/B 3.9 17:25:08 10° NNW 17:31:32 28° NNE 17:35:59 18° ENE
Abrixas rocket 2.4 17:28:31 10° W 17:31:45 61° NNW 17:33:23 26° NE
ISS -3.7 17:29:43 10° WNW 17:33:01 75° SSW 17:36:04 12° SE
EO 1 Del DPAF 4.2 17:31:44 21° ENE 17:33:09 27° E 17:36:25 10° SSE
NOAA 15 4.5 17:27:57 10° SSE 17:33:10 73° ENE 17:38:25 10° N
Cosmos 1125 Rocket 3.9 17:29:45 10° S 17:34:43 42° ESE 17:38:32 16° NE
CZ-4 R/B 4.4 17:31:42 10° SSE 17:35:46 61° ENE 17:39:51 10° N
Cosmos 1937 Rocket 4.2 17:30:55 10° SW 17:35:58 52° WNW 17:41:01 10° NNE
Cosmos 2279 Rocket 4.2 17:30:09 10° SSW 17:36:24 75° W 17:42:41 10° N
Cosmos 1975 Rocket 4.1 17:32:11 10° SSW 17:36:30 48° WNW 17:40:53 10° N
Cosmos 1743 3.0 17:32:42 10° NNW 17:36:34 70° W 17:40:25 10° S
Meteor 1-19 Rocket 4.2 17:32:10 10° S 17:37:49 80° E 17:43:37 10° NNE
SJ 16-02 1.8 17:34:27 10° S 17:38:31 39° ESE 17:40:49 22° NE
BREEZE-M DEB (TANK) 3.3 17:39:03 10° WNW 17:41:45 52° SSW 17:49:20 10° SE
Cosmos 1048 Rocket 4.1 17:36:56 10° NNW 17:42:16 57° ENE 17:47:33 10° SE
FENGYUN 3A 3.9 17:38:37 10° SE 17:43:43 46° ENE 17:48:50 10° N
NOAA 12 4.3 17:41:15 10° SE 17:46:16 47° ENE 17:51:17 10° N
PSLV R/B 4.3 17:44:09 10° SW 17:47:00 31° SSE 17:47:56 25° SE
METEOR-M 4.0 17:44:18 10° SSE 17:49:37 82° ENE 17:55:00 10° NNW
Cosmos 1697 Rocket 3.3 17:46:09 10° SSE 17:51:10 34° ESE 17:53:01 27° ENE
USA 238 DEB 3.9 17:45:59 10° NW 17:53:07 82° SW 18:00:19 10° SSE
USA 238 3.9 17:46:05 10° NW 17:53:13 83° SW 18:00:25 10° SSE
DELTA 2 R/B (1) 4.1 17:50:22 10° WSW 17:55:46 53° S 17:58:57 24° ESE
SKYMED 3 4.5 17:53:02 16° NNE 17:56:24 66° ESE 18:00:42 10° S
Landsat 4 3.6 17:53:52 19° NNE 17:56:36 81° ESE 18:00:24 10° SSW
Cosmos 2082 3.6 17:52:06 10° NNW 17:57:45 82° ENE 18:03:22 10° SSE
Cosmos 372 Rocket 3.9 17:55:01 10° S 18:00:11 67° ESE 18:03:21 23° NNE
MOS 1 4.2 17:54:39 10° SSE 18:00:20 81° ENE 18:06:03 10° NNW
Cosmos 1536 Rocket 3.6 18:00:16 10° SSW 18:04:37 78° W 18:08:49 11° N
Cosmos 1025 Rocket 3.5 18:01:51 10° SSE 18:05:20 37° ESE 18:05:20 37° ESE
BREEZE-M DEB (TANK) 3.5 18:04:08 10° WNW 18:07:01 72° NNE 18:09:25 32° ESE
Gblst 52 Del rocket 4.3 18:03:17 10° WNW 18:08:51 61° NNE 18:11:14 36° E
ERS-2 2.1 18:06:51 10° SSE 18:10:32 83° W 18:14:13 10° NNW
Cosmos 2227 Rocket 2.6 18:05:24 10° NNW 18:11:00 63° WSW 18:16:34 10° S
MTI 4.0 18:10:12 40° N 18:11:12 68° WNW 18:14:25 10° SSW
Nadezhda 2 Rocket 4.5 18:05:17 10° N 18:11:32 62° E 18:17:51 10° SSE
SKYMED 2 3.6 18:11:14 18° N 18:14:24 80° WNW 18:18:44 10° SSW
Meteor 1-23 Rocket 4.1 18:12:43 10° S 18:18:29 83° E 18:23:35 13° NNE
Atlas Centaur 2 4.2 18:16:41 10° SW 18:18:30 12° SSW 18:20:12 10° S
DNEPR-1 R/B 4.4 18:16:36 10° NNW 18:21:12 42° NE 18:21:12 42° NE
NOSS 3-2 (A) 4.0 18:15:41 10° NW 18:23:14 89° SW 18:31:28 10° SE
Cosmos 724 4.5 18:19:04 10° NW 18:24:50 70° WSW 18:30:36 10° SSE
BREEZE-M DEB (TANK) 3.6 18:24:09 10° WNW 18:26:57 45° NNE 18:26:57 45° NNE
NOSS 3-2 (C) 3.9 18:22:06 10° NW 18:29:37 80° NE 18:36:34 16° SE
Cosmos 1980 Rocket 2.8 18:25:54 10° S 18:30:15 39° SE 18:30:15 39° SE
DMSP B5D1-3 4.4 18:30:02 34° NNE 18:32:21 87° ESE 18:37:28 10° SSW
CZ-4 R/B 4.3 18:34:15 10° SW 18:36:52 17° W 18:39:30 10° NW
ATLAS 2AS CENTAUR R/B 3.8 18:30:04 10° WSW 18:37:39 48° NW 18:43:00 21° NNE
Cosmos 2297 Rocket 3.2 18:32:31 10° NW 18:37:54 45° WSW 18:43:14 10° S
ATLAS 3B R/B 3.8 18:34:33 10° NW 18:40:42 41° WSW 18:46:43 10° S
SPOT 3 Rocket 4.2 18:37:22 10° S 18:42:25 54° W 18:47:30 10° NNW
Cosmos 1656 4.3 18:49:37 10° SW 18:55:03 52° WNW 18:56:53 37° N
ALOS 3.8 18:52:32 10° SSW 18:56:48 35° W 19:01:07 10° NNW
NOSS 3-4 (A) 3.3 18:52:08 10° SSW 18:58:22 86° SE 18:58:48 78° ENE
NOSS 3-4 (C) 3.3 18:52:15 10° SSW 18:58:28 85° SE 18:58:51 79° ENE
ISS -0.4 19:08:25 10° WSW 19:08:47 10° SW 19:08:47 10° SW
SJ 16-02 3.5 19:13:50 10° WSW 19:17:16 22° WNW 19:17:52 21° NW
Cosmos 2263 Rocket 4.5 19:12:37 10° NNW 19:13:07 12° N 19:13:07 12° N
CENTAUR R/B 3.0 19:15:35 10° NW 19:23:14 77° NNE 19:23:14 77° NNE
Gbstr 26 Del rocket 4.4 19:24:41 10° WSW 19:31:56 72° WNW 19:31:56 72° WNW
Cosmos 1697 Rocket 3.8 19:29:46 10° SW 19:34:48 39° WNW 19:34:48 39° WNW
Cosmos 1980 Rocket 4.5 20:10:11 10° WSW 20:12:05 19° WSW 20:12:05 19° WSW
